Weather History for Pine Bluff, AR

Change the Weather History Date:

Monday, May 27, 2013

  Actual Average Record
Temperature  
Mean Temperature 78 °F 75 °F  
Max Temperature 87 °F 85 °F 97 °F (1918)
Min Temperature 68 °F 65 °F 45 °F (1901)
Degree Days  
Heating Degree Days 0 0  
Month to date heating degree days 61 15  
Since 1 July heating degree days 2957 2879  
Cooling Degree Days 13 10  
Month to date cooling degree days 147 180  
Year to date cooling degree days 210 267  
Growing Degree Days 27 (Base 50)    
Moisture  
Dew Point 67 °F    
Average Humidity 72    
Maximum Humidity 93    
Minimum Humidity 51    
Precipitation  
Precipitation 0.00 in 0.15 in 1.65 in (1924)
Month to date precipitation 6.63 4.42  
Year to date precipitation 26.90 22.57  
Snow  
Snow 0.00 in 0.00 in - ()
Month to date snowfall 0.0 0.0  
Since 1 July snowfall 2.1 3.1  
Snow Depth 0.00 in    
Sea Level Pressure  
Sea Level Pressure 30.01 in    
Wind  
Wind Speed 10 mph (South)    
Max Wind Speed 20 mph    
Max Gust Speed 25 mph    
Visibility 10 miles    
Events      
T = Trace of Precipitation, MM = Missing Value Source: NWS Daily Summary

Daily Weather History Graph

Daily Weather History Graph

Search for Another Location

Airport:

Trip Planner

Search our weather history database for the weather conditions in past years. The results will help you decide how hot, cold, wet, or windy it might be!

Date:

Astronomy

May. 27, 2013 Rise Set
Actual Time 5:58 AM CDT 8:11 PM CDT
Civil Twilight 5:30 AM CDT 8:39 PM CDT
Nautical Twilight 4:55 AM CDT 9:14 PM CDT
Astronomical Twilight 4:17 AM CDT 9:52 PM CDT
Moon 10:54 PM CDT (5/27) 8:34 AM CDT (5/27)
Length of Visible Light 15h 09m
Length of Day
14h 12m
Waning Gibbous, 91% of the Moon is Illuminated
May 27
Waning Gibbous
May 31
Last Quarter
Jun 8
New
Jun 16
First Quarter
Jun 23
Full

Hourly Weather History & Observations

Time (CDT) Temp. Heat Index Dew Point Humidity Pressure Visibility Wind Dir Wind Speed Gust Speed Precip Events Conditions
12:53 AM 68.0 °F - 66.9 °F 96% 30.07 in 10.0 mi SSE 4.6 mph - N/A   Overcast
1:53 AM 69.1 °F - 66.9 °F 93% 30.06 in 10.0 mi South 3.5 mph - N/A   Overcast
2:53 AM 69.1 °F - 66.0 °F 90% 30.05 in 10.0 mi SE 3.5 mph - N/A   Mostly Cloudy
3:53 AM 69.1 °F - 64.9 °F 87% 30.04 in 10.0 mi SSE 5.8 mph - N/A   Scattered Clouds
4:53 AM 68.0 °F - 64.9 °F 90% 30.04 in 10.0 mi South 3.5 mph - N/A   Clear
5:53 AM 68.0 °F - 64.9 °F 90% 30.06 in 10.0 mi South 4.6 mph - N/A   Partly Cloudy
6:53 AM 69.1 °F - 64.9 °F 87% 30.07 in 10.0 mi South 4.6 mph - N/A   Clear
7:53 AM 71.1 °F - 66.9 °F 87% 30.07 in 10.0 mi South 6.9 mph - N/A   Clear
8:53 AM 75.0 °F - 69.1 °F 82% 30.07 in 10.0 mi SSW 12.7 mph - N/A   Clear
9:53 AM 78.1 °F - 69.1 °F 74% 30.06 in 10.0 mi SSW 13.8 mph 19.6 mph N/A   Scattered Clouds
10:53 AM 80.1 °F 82.9 °F 69.1 °F 69% 30.05 in 10.0 mi SSW 15.0 mph 21.9 mph N/A   Scattered Clouds
11:22 AM 80.6 °F 83.2 °F 68.0 °F 65% 30.06 in 10.0 mi South 15.0 mph 21.9 mph N/A   Mostly Cloudy
11:33 AM 80.6 °F 83.2 °F 68.0 °F 65% 30.05 in 10.0 mi South 15.0 mph - N/A   Mostly Cloudy
11:53 AM 82.0 °F 84.9 °F 68.0 °F 62% 30.04 in 10.0 mi South 15.0 mph - N/A   Scattered Clouds
12:53 PM 82.9 °F 85.4 °F 66.9 °F 58% 30.02 in 10.0 mi South 15.0 mph 20.7 mph N/A   Mostly Cloudy
1:53 PM 84.0 °F 86.5 °F 66.9 °F 56% 30.01 in 10.0 mi SW 12.7 mph 18.4 mph N/A   Mostly Cloudy
2:53 PM 86.0 °F 88.2 °F 66.0 °F 51% 29.99 in 10.0 mi SW 15.0 mph 20.7 mph N/A   Partly Cloudy
3:53 PM 86.0 °F 88.8 °F 66.9 °F 53% 29.97 in 10.0 mi South 13.8 mph - N/A   Scattered Clouds
4:53 PM 86.0 °F 88.8 °F 66.9 °F 53% 29.95 in 10.0 mi South 13.8 mph - N/A   Mostly Cloudy
5:53 PM 84.0 °F 86.3 °F 66.0 °F 55% 29.94 in 10.0 mi South 15.0 mph - N/A   Partly Cloudy
6:53 PM 84.0 °F 85.8 °F 64.9 °F 53% 29.93 in 10.0 mi South 13.8 mph - N/A   Clear
7:53 PM 80.1 °F 82.3 °F 66.9 °F 64% 29.94 in 10.0 mi South 5.8 mph - N/A   Clear
8:53 PM 75.0 °F - 68.0 °F 79% 29.93 in 10.0 mi SE 6.9 mph - N/A   Clear
9:53 PM 73.9 °F - 66.9 °F 79% 29.94 in 10.0 mi SSE 6.9 mph - N/A   Clear
10:53 PM 73.0 °F - 66.9 °F 81% 29.97 in 10.0 mi SSE 8.1 mph - N/A   Clear
11:53 PM 73.0 °F - 66.9 °F 81% 29.96 in 10.0 mi South 8.1 mph - N/A   Clear